Hourly Data Report for April 07, 2020

CLYDE RIVER A
NUNAVUT
Current Station Operator: NAVCAN

70°29'09.000" N
68°31'01.000" W
26.50 m
2400804
71090
YCY

Download Data

Hourly Data (April 2020)
Hourly Data Report for April 7, 2020
TIME
LST
Temp Definition
°C
Dew Point Definition
°C
Rel Hum Definition
%
Precip. Amount Definition
mm

Wind Dir Definition
10's deg

Wind Spd Definition
km/h
Visibility Definition
km
Stn Press Definition
kPa
Hmdx Definition


Wind Chill Definition


Weather Definition


00:00 -10.2 -13.8 75 0.0 31 61 2.8 101.27   -23 Snow
01:00 -11.0 -14.5 76 0.0 31 52 6.4 101.28   -23 Haze
02:00 -10.3 -13.9 75 0.0 31 55 4.0 101.26   -23 Snow
03:00 -9.8 -14.4 70 0.0 31 50 11.3 101.26   -21 LegendNANA
04:00 -10.1 -14.6 70 0.0 32 52 16.1 101.29   -22 LegendNANA
05:00 -9.5 -14.4 68 0.0 31 52 16.1 101.29   -21 LegendNANA
06:00 -9.2 -13.9 69 0.0 32 52 11.3 101.31   -21 LegendNANA
07:00 -9.2 -13.8 70 0.0 31 48 12.9 101.37   -20 LegendNANA
08:00 -8.7 -13.2 70 0.0 31 52 11.3 101.38   -20 LegendNANA
09:00 -7.7 -12.9 67 0.0 32 52 9.7 101.37   -19 Haze
10:00 -7.4 -12.3 68 0.0 31 46 16.1 101.37   -18 Snow
11:00 -6.7 -12.3 65 0.0 31 45 16.1 101.41   -17 LegendNANA
12:00 -5.8 -11.8 63 0.0 31 39 16.1 101.47   -15 Snow
13:00 -5.2 -12.0 59 0.0 32 35 16.1 101.47   -14 LegendNANA
14:00 -6.6 -11.9 67 0.0 32 34 16.1 101.50   -16 LegendNANA
15:00 -6.6 -12.2 65 0.0 31 34 16.1 101.57   -16 LegendNANA
16:00 -6.8 -12.9 62 0.0 31 39 16.1 101.61   -16 LegendNANA
17:00 -7.8 -14.1 61 0.0 31 22 16.1 101.70   -15 LegendNANA
18:00 -7.7 -15.4 54 0.0 29 24 16.1 101.74   -16 LegendNANA
19:00 -9.3 -16.1 58 0.0 30 22 16.1 101.79   -17 LegendNANA
20:00 -10.2 -16.9 59 0.0 30 28 16.1 101.80   -19 LegendNANA
21:00 -10.7 -17.9 56 0.0 31 24 16.1 101.86   -19 LegendNANA
22:00 -10.6 -17.4 58 0.0 31 28 16.1 101.85   -20 LegendNANA
23:00 -11.6 -18.5 57 0.0 32 26 16.1 101.88   -21 LegendNANA

Notes on Data Quality.

Legend

  • E = Estimated
  • M = Missing
  • NA = Not Available*
  • [empty] = Indicates an unobserved value
Date modified: